EW4993 Weather Reports


time (UTC)temp
C
wind
direction
speed
KPH
gust
KPH
rain 1hr
cm
rain 24hr
cm
rain mn
cm
humidity
%
barometer
mb
20260505041611 21 217 11.3 17.7 0.00 0.00 0.00 82 983.4
20260505040049 21 211 12.9 22.5 0.00 0.00 0.00 82 983.6
20260505034534 21 213 11.3 17.7 0.00 0.00 0.00 82 983.6
20260505033031 21 196 11.3 22.5 0.00 0.00 0.00 82 983.5
20260505031509 22 198 11.3 17.7 0.00 0.00 0.00 81 983.4
20260505030009 22 196 11.3 19.3 0.00 0.00 0.00 81 983.4
20260505024549 22 207 11.3 27.4 0.00 0.00 0.00 81 983.4
20260505023049 22 200 11.3 19.3 0.00 0.00 0.00 80 983.3
20260505021530 22 205 9.7 16.1 0.00 0.00 0.00 80 983.2
20260505020026 22 217 9.7 16.1 0.00 0.00 0.00 79 983.0
20260505014507 22 208 9.7 16.1 0.00 0.00 0.00 78 983.0
20260505013008 23 195 8.0 14.5 0.00 0.00 0.00 76 983.1
20260505011543 23 198 9.7 16.1 0.00 0.00 0.00 75 983.0
20260505010044 23 205 9.7 16.1 0.00 0.00 0.00 73 983.1
20260505004522 24 212 11.3 20.9 0.00 0.00 0.00 72 982.9
20260505003017 24 209 9.7 16.1 0.00 0.00 0.00 71 983.1
20260505001558 25 210 11.3 22.5 0.00 0.00 0.00 69 983.0
20260505000106 25 187 14.5 30.6 0.00 0.00 0.00 68 982.9
20260504234534 26 200 16.1 30.6 0.00 0.00 0.00 67 982.9
20260504233035 26 198 17.7 27.4 0.00 0.00 0.00 66 983.3
20260504231527 26 234 16.1 32.2 0.00 0.00 0.00 66 983.3
20260504230018 26 210 12.9 27.4 0.00 0.00 0.00 66 983.4
20260504224514 26 215 19.3 32.2 0.00 0.00 0.00 65 983.6
20260504223011 26 223 12.9 40.2 0.00 0.00 0.00 65 983.9
20260504221509 26 212 16.1 29.0 0.00 0.00 0.00 65 984.0
20260504220013 26 216 14.5 29.0 0.00 0.00 0.00 65 984.1
20260504214509 26 209 14.5 29.0 0.00 0.00 0.00 65 984.0
20260504213009 26 174 16.1 32.2 0.00 0.00 0.00 65 984.3
20260504211550 26 226 17.7 35.4 0.00 0.00 0.00 64 984.6
20260504204524 26 203 16.1 32.2 0.00 0.00 0.00 64 985.2
20260504203030 26 194 16.1 25.7 0.00 0.00 0.00 65 985.5
20260504201502 26 198 12.9 30.6 0.00 0.00 0.00 67 985.7
20260504194600 25 222 19.3 33.8 0.00 0.00 0.00 65 986.4
20260504193037 25 221 22.5 30.6 0.00 0.00 0.00 67 986.5
20260504191517 25 209 19.3 27.4 0.00 0.00 0.00 67 986.8
20260504190014 24 227 16.1 27.4 0.00 0.00 0.00 70 987.0
20260504184559 24 202 17.7 25.7 0.00 0.00 0.00 69 987.2
20260504183056 23 236 17.7 35.4 0.00 0.00 0.00 69 987.3
20260504181542 23 247 17.7 30.6 0.00 0.00 0.00 71 987.5
20260504180048 23 200 19.3 30.6 0.00 0.00 0.00 69 987.9
20260504174513 23 232 19.3 30.6 0.00 0.00 0.00 70 988.0
20260504173016 23 244 20.9 32.2 0.00 0.00 0.00 70 988.2
20260504171612 22 257 19.3 30.6 0.00 0.00 0.00 71 988.5
20260504140112 17 223 12.9 25.7 0.00 0.00 0.00 82 989.5
20260504081513 14 207 4.8 9.7 0.00 0.00 0.00 82 989.7